This is the latest recevied weather packets stored in our database for station/object G4GVZ-1. If no packets are shown the sender has not sent any weather packets the latest 10 day(s).
| Time | Temp. | Humidity | Pressure | Rain* | Wind** | Luminosity | Snow |
|---|---|---|---|---|---|---|---|
| 1778124649 | 6.11° C | 91% | 1014.5 hPa | 0 mm | - | - | - |
| 1778123749 | 5.56° C | 91% | 1014.6 hPa | 0 mm | - | - | - |
| 1778122849 | 5.56° C | 91% | 1014.7 hPa | 0 mm | - | - | - |
| 1778121951 | 6.11° C | 90% | 1014.7 hPa | 0 mm | - | - | - |
| 1778121051 | 6.11° C | 89% | 1014.8 hPa | 0 mm | - | - | - |
| 1778120151 | 6.67° C | 89% | 1014.9 hPa | 0 mm | - | - | - |
| 1778119251 | 6.67° C | 89% | 1014.8 hPa | 0 mm | - | - | - |
| 1778118350 | 6.67° C | 88% | 1014.7 hPa | 0 mm | - | - | - |
| 1778117450 | 6.67° C | 88% | 1014.8 hPa | 0 mm | - | - | - |
| 1778116550 | 6.67° C | 87% | 1014.6 hPa | 0 mm | - | - | - |
| 1778115650 | 6.67° C | 87% | 1014.5 hPa | 0 mm | - | - | - |
| 1778114749 | 6.67° C | 87% | 1014.5 hPa | 0 mm | - | - | - |
| 1778113851 | 6.67° C | 87% | 1014.6 hPa | 0 mm | - | - | - |
| 1778112951 | 6.67° C | 87% | 1014.6 hPa | 0 mm | - | - | - |
| 1778112051 | 6.67° C | 86% | 1014.6 hPa | 0 mm | - | - | - |
| 1778111150 | 6.67° C | 85% | 1014.8 hPa | 0 mm | - | - | - |
| 1778110250 | 7.22° C | 85% | 1014.8 hPa | 0 mm | - | - | - |
| 1778109352 | 7.22° C | 84% | 1014.9 hPa | 0 mm | - | - | - |
| 1778108452 | 7.22° C | 84% | 1014.8 hPa | 0 mm | - | - | - |
| 1778107548 | 7.78° C | 83% | 1014.7 hPa | 0 mm | - | - | - |
| 1778106647 | 7.78° C | 83% | 1014.7 hPa | 0 mm | - | - | - |
| 1778105747 | 7.78° C | 82% | 1014.6 hPa | 0 mm | - | - | - |
| 1778104847 | 8.33° C | 81% | 1014.5 hPa | 0 mm | - | - | - |
| 1778103947 | 8.33° C | 80% | 1014.5 hPa | 0 mm | - | - | - |
| 1778103046 | 8.89° C | 78% | 1014.4 hPa | 0 mm | - | - | - |
* Rain latest hour (hover to see other rain measurements)
** Current wind speed in m/s (hover to see current wind gust speed)